This is the latest recevied weather packets stored in our database for station/object DB0MOE-6. If no packets are shown the sender has not sent any weather packets the latest 1 day(s).
| Time | Temp. | Humidity | Pressure | Rain* | Wind** | Luminosity | Snow |
|---|---|---|---|---|---|---|---|
| 1778022982 | 13.89° C | 79% | 988.1 hPa | 0 mm | 0.89 m/s, 142° | - | - |
| 1778022922 | 13.89° C | 79% | 988.1 hPa | 0 mm | 0.89 m/s, 112° | - | - |
| 1778022862 | 13.89° C | 79% | 988.1 hPa | 0 mm | 0.45 m/s, 128° | - | - |
| 1778022802 | 13.89° C | 78% | 988.1 hPa | 0 mm | 0.45 m/s, 146° | - | - |
| 1778022742 | 13.89° C | 79% | 988.1 hPa | 0 mm | 0.45 m/s, 91° | - | - |
| 1778022682 | 13.89° C | 79% | 988 hPa | 0 mm | 0.45 m/s, 90° | - | - |
| 1778022622 | 13.89° C | 79% | 988 hPa | 0 mm | 0.45 m/s, 97° | - | - |
| 1778022562 | 13.89° C | 79% | 988.2 hPa | 0 mm | 0.45 m/s, 79° | - | - |
| 1778022502 | 13.89° C | 80% | 988.1 hPa | 0 mm | 0.45 m/s, 89° | - | - |
| 1778022442 | 13.89° C | 80% | 988.2 hPa | 0 mm | 0.45 m/s, 53° | - | - |
| 1778022382 | 13.89° C | 80% | 988.3 hPa | 0 mm | 0.45 m/s, 112° | - | - |
| 1778022322 | 13.89° C | 81% | 988.1 hPa | 0 mm | 0.45 m/s, 127° | - | - |
| 1778022262 | 13.89° C | 81% | 988.3 hPa | 0 mm | 0.45 m/s, 90° | - | - |
| 1778022202 | 13.89° C | 81% | 988.3 hPa | 0 mm | 0.45 m/s, 301° | - | - |
| 1778022142 | 13.89° C | 81% | 988.2 hPa | 0 mm | 0.45 m/s, 134° | - | - |
| 1778022082 | 13.89° C | 81% | 988.2 hPa | 0 mm | 0.45 m/s, 127° | - | - |
| 1778022022 | 13.89° C | 81% | 988.3 hPa | 0 mm | 0 m/s | - | - |
| 1778021962 | 13.89° C | 82% | 988.3 hPa | 0 mm | 0 m/s | - | - |
| 1778021902 | 13.89° C | 82% | 988.4 hPa | 0 mm | 0 m/s | - | - |
| 1778021842 | 13.89° C | 81% | 988.2 hPa | 0 mm | 0 m/s | - | - |
| 1778021782 | 13.89° C | 81% | 988.2 hPa | 0 mm | 0.45 m/s, 106° | - | - |
| 1778021721 | 13.89° C | 81% | 988.3 hPa | 0 mm | 0 m/s | - | - |
| 1778021661 | 13.89° C | 81% | 988.3 hPa | 0 mm | 0 m/s | - | - |
| 1778021601 | 13.89° C | 81% | 988.3 hPa | 0 mm | 0 m/s | - | - |
| 1778021541 | 13.89° C | 82% | 988.3 hPa | 0 mm | 0 m/s | - | - |
* Rain latest hour (hover to see other rain measurements)
** Current wind speed in m/s (hover to see current wind gust speed)